User: anonymous   Login
Location: Caltech
(34.1382°N, 118.1253°W)
Time: 03:20:15
(UTC-08:00)
Language:

Meteor 1-11 Rocket - Orbit

View from above orbital plane
View from above orbital plane
View from above satellite
View from above satellite

Ground track
Ground track

The orbit data is extracted from the following two-line orbital elements,

1 05918U 72022B   17327.07173836 -.00000032  00000-0 -26695-4 0  9990
2 05918  81.2362 172.1778 0057267 239.8746 119.6740 14.05832614340319
Epoch (UTC): 23 November 2017 01:43:18
Eccentricity: 0.0057267
inclination: 81.2362°
perigee height: 832 km
apogee height: 915 km
right ascension of ascending node: 172.1778°
argument of perigee: 239.8746°
revolutions per day: 14.05832614
mean anomaly at epoch: 119.6740°
orbit number at epoch: 34031

The dashed part of the orbit path shows where the satellite is in the earth's shadow,  

DLR